Location: Luxembourg
(49.6117°N, 6.1300°E)
Time: 21:05:11
(UTC+02:00)

NUDT-PHONESAT - Visible Passes

Search period start: 20 October 2019 00:00
Search period end: 29 October 2019 23:00
Orbit: 486 x 506 km, 97.4° (Epoch: 20 October)

Date Brightness Start Highest point End Pass type
(mag) Time Alt. Az. Time Alt. Az. Time Alt. Az.
20 Oct ? 19:57:57 10° SSW 20:01:00 25° W 20:04:03 10° NW visible
21 Oct ? 07:22:05 10° NE 07:24:49 20° E 07:27:33 10° SE visible
21 Oct ? 19:36:39 10° S 19:40:07 42° W 19:43:35 10° NNW visible
22 Oct ? 07:02:19 10° ENE 07:03:50 12° E 07:05:21 10° ESE visible
22 Oct ? 19:15:40 10° S 19:19:17 75° WSW 19:22:55 10° NNW visible
23 Oct ? 20:31:11 10° WSW 20:32:36 12° W 20:33:59 10° WNW visible
24 Oct ? 20:08:55 10° SW 20:11:36 19° W 20:14:18 10° NW visible
25 Oct ? 07:32:20 10° NE 07:35:25 26° E 07:38:29 10° SSE visible
25 Oct ? 19:47:24 10° SSW 19:50:40 32° W 19:53:58 10° NNW visible
26 Oct ? 07:12:11 10° NE 07:14:28 16° E 07:16:44 10° SE visible
26 Oct ? 19:26:15 10° S 19:29:48 56° W 19:33:23 10° NNW visible
27 Oct ? 18:05:23 10° SSE 18:08:59 82° ENE 18:12:37 10° NNW visible
28 Oct ? 19:20:00 10° SW 19:22:10 15° W 19:24:21 10° NW visible
29 Oct ? 06:42:37 10° NNE 06:45:57 33° E 06:49:16 10° SSE visible
29 Oct ? 18:58:11 10° SSW 19:01:12 25° W 19:04:14 10° NW visible
